Year,Month,Day,Hour,Minute,Value (Times are PST for temperature in C)
2016,04,18,00,00,12.80
2016,04,18,00,01,12.80
2016,04,18,00,02,12.80
2016,04,18,00,03,12.80
2016,04,18,00,04,12.80
2016,04,18,00,05,12.80
2016,04,18,00,06,12.80
2016,04,18,00,07,12.80
2016,04,18,00,08,12.80
2016,04,18,00,09,12.80
2016,04,18,00,10,12.80
2016,04,18,00,11,12.80
2016,04,18,00,12,12.80
2016,04,18,00,13,12.70
2016,04,18,00,14,12.70
2016,04,18,00,15,12.70
2016,04,18,00,16,12.70
2016,04,18,00,17,12.70
2016,04,18,00,18,12.70
2016,04,18,00,19,12.70
2016,04,18,00,20,12.70
2016,04,18,00,21,12.70
2016,04,18,00,22,12.70
2016,04,18,00,23,12.70
2016,04,18,00,24,12.70
2016,04,18,00,25,12.70
2016,04,18,00,26,12.70
2016,04,18,00,27,12.70
2016,04,18,00,28,12.70
2016,04,18,00,29,12.70
2016,04,18,00,30,12.70
2016,04,18,00,31,12.70
2016,04,18,00,32,12.70
2016,04,18,00,33,12.70
2016,04,18,00,34,12.70
2016,04,18,00,35,12.70
2016,04,18,00,36,12.70
2016,04,18,00,37,12.70
2016,04,18,00,38,12.70
2016,04,18,00,39,12.70
2016,04,18,00,40,12.60
2016,04,18,00,41,12.60
2016,04,18,00,42,12.60
2016,04,18,00,43,12.50
2016,04,18,00,44,12.50
2016,04,18,00,45,12.60
2016,04,18,00,46,12.60
2016,04,18,00,47,12.60
2016,04,18,00,48,12.70
2016,04,18,00,49,12.80
2016,04,18,00,50,12.80
2016,04,18,00,51,12.80
2016,04,18,00,52,12.80
2016,04,18,00,53,12.80
2016,04,18,00,54,12.80
2016,04,18,00,55,12.80
2016,04,18,00,56,12.90
2016,04,18,00,57,12.90
2016,04,18,00,58,13.00
2016,04,18,00,59,13.00
2016,04,18,01,00,13.00
2016,04,18,01,01,13.10
2016,04,18,01,02,13.20
2016,04,18,01,03,13.30
2016,04,18,01,04,13.40
2016,04,18,01,05,13.50
2016,04,18,01,06,13.60
2016,04,18,01,07,13.60
2016,04,18,01,08,13.70
2016,04,18,01,09,13.70
2016,04,18,01,10,13.80
2016,04,18,01,11,13.90
2016,04,18,01,12,13.90
2016,04,18,01,13,13.90
2016,04,18,01,14,13.90
2016,04,18,01,15,13.80
2016,04,18,01,16,13.80
2016,04,18,01,17,13.70
2016,04,18,01,18,13.80
2016,04,18,01,19,13.80
2016,04,18,01,20,13.80
2016,04,18,01,21,13.80
2016,04,18,01,22,13.80
2016,04,18,01,23,13.90
2016,04,18,01,24,13.90
2016,04,18,01,25,13.90
2016,04,18,01,26,14.00
2016,04,18,01,27,14.00
2016,04,18,01,28,14.00
2016,04,18,01,29,14.10
2016,04,18,01,30,14.10
2016,04,18,01,31,14.10
2016,04,18,01,32,14.20
2016,04,18,01,33,14.20
2016,04,18,01,34,14.20
2016,04,18,01,35,14.20
2016,04,18,01,36,14.20
2016,04,18,01,37,14.10
2016,04,18,01,38,14.10
2016,04,18,01,39,14.00
2016,04,18,01,40,14.00
2016,04,18,01,41,14.00
2016,04,18,01,42,13.90
2016,04,18,01,43,13.90
2016,04,18,01,44,13.80
2016,04,18,01,45,13.70
2016,04,18,01,46,13.70
2016,04,18,01,47,13.70
2016,04,18,01,48,13.60
2016,04,18,01,49,13.60
2016,04,18,01,50,13.60
2016,04,18,01,51,13.50
2016,04,18,01,52,13.60
2016,04,18,01,53,13.60
2016,04,18,01,54,13.60
2016,04,18,01,55,13.60
2016,04,18,01,56,13.60
2016,04,18,01,57,13.60
2016,04,18,01,58,13.60
2016,04,18,01,59,13.70
2016,04,18,02,00,13.70
2016,04,18,02,01,13.70
2016,04,18,02,02,13.70
2016,04,18,02,03,13.70
2016,04,18,02,04,13.80
2016,04,18,02,05,13.80
2016,04,18,02,06,13.80
2016,04,18,02,07,13.80
2016,04,18,02,08,13.80
2016,04,18,02,09,13.70
2016,04,18,02,10,13.70
2016,04,18,02,11,13.70
2016,04,18,02,12,13.70
2016,04,18,02,13,13.70
2016,04,18,02,14,13.70
2016,04,18,02,15,13.70
2016,04,18,02,16,13.70
2016,04,18,02,17,13.70
2016,04,18,02,18,13.70
2016,04,18,02,19,13.70
2016,04,18,02,20,13.70
2016,04,18,02,21,13.70
2016,04,18,02,22,13.70
2016,04,18,02,23,13.80
2016,04,18,02,24,13.80
2016,04,18,02,25,13.80
2016,04,18,02,26,13.90
2016,04,18,02,27,13.90
2016,04,18,02,28,13.90
2016,04,18,02,29,13.90
2016,04,18,02,30,13.90
2016,04,18,02,31,14.00
2016,04,18,02,32,14.00
2016,04,18,02,33,14.00
2016,04,18,02,34,14.00
2016,04,18,02,35,14.00
2016,04,18,02,36,14.00
2016,04,18,02,37,14.00
2016,04,18,02,38,14.00
2016,04,18,02,39,14.00
2016,04,18,02,40,14.00
2016,04,18,02,41,14.00
2016,04,18,02,42,14.00
2016,04,18,02,43,13.90
2016,04,18,02,44,13.90
2016,04,18,02,45,13.90
2016,04,18,02,46,14.00
2016,04,18,02,47,14.00
2016,04,18,02,48,14.00
2016,04,18,02,49,14.00
2016,04,18,02,50,13.90
2016,04,18,02,51,13.90
2016,04,18,02,52,13.90
2016,04,18,02,53,13.80
2016,04,18,02,54,13.80
2016,04,18,02,55,13.80
2016,04,18,02,56,13.80
2016,04,18,02,57,13.70
2016,04,18,02,58,13.70
2016,04,18,02,59,13.70
2016,04,18,03,00,13.70
2016,04,18,03,01,13.60
2016,04,18,03,02,13.60
2016,04,18,03,03,13.60
2016,04,18,03,04,13.60
2016,04,18,03,05,13.50
2016,04,18,03,06,13.50
2016,04,18,03,07,13.50
2016,04,18,03,08,13.50
2016,04,18,03,09,13.50
2016,04,18,03,10,13.50
2016,04,18,03,11,13.50
2016,04,18,03,12,13.50
2016,04,18,03,13,13.50
2016,04,18,03,14,13.50
2016,04,18,03,15,13.60
2016,04,18,03,16,13.60
2016,04,18,03,17,13.60
2016,04,18,03,18,13.60
2016,04,18,03,19,13.60
2016,04,18,03,20,13.60
2016,04,18,03,21,13.60
2016,04,18,03,22,13.60
2016,04,18,03,23,13.60
2016,04,18,03,24,13.60
2016,04,18,03,25,13.70
2016,04,18,03,26,13.70
2016,04,18,03,27,13.70
2016,04,18,03,28,13.70
2016,04,18,03,29,13.70
2016,04,18,03,30,13.80
2016,04,18,03,31,13.80
2016,04,18,03,32,13.90
2016,04,18,03,33,13.90
2016,04,18,03,34,13.90
2016,04,18,03,35,13.90
2016,04,18,03,36,14.00
2016,04,18,03,37,14.00
2016,04,18,03,38,14.00
2016,04,18,03,39,14.00
2016,04,18,03,40,14.10
2016,04,18,03,41,14.10
2016,04,18,03,42,14.10
2016,04,18,03,43,14.10
2016,04,18,03,44,14.10
2016,04,18,03,45,14.20
2016,04,18,03,46,14.20
2016,04,18,03,47,14.20
2016,04,18,03,48,14.20
2016,04,18,03,49,14.20
2016,04,18,03,50,14.10
2016,04,18,03,51,14.10
2016,04,18,03,52,14.00
2016,04,18,03,53,14.00
2016,04,18,03,54,14.00
2016,04,18,03,55,14.00
2016,04,18,03,56,14.00
2016,04,18,03,57,14.00
2016,04,18,03,58,14.00
2016,04,18,03,59,13.90
2016,04,18,04,00,13.90
2016,04,18,04,01,13.90
2016,04,18,04,02,13.80
2016,04,18,04,03,13.80
2016,04,18,04,04,13.80
2016,04,18,04,05,13.70
2016,04,18,04,06,13.80
2016,04,18,04,07,13.80
2016,04,18,04,08,13.80
2016,04,18,04,09,13.70
2016,04,18,04,10,13.70
2016,04,18,04,11,13.80
2016,04,18,04,12,13.80
2016,04,18,04,13,13.80
2016,04,18,04,14,13.80
2016,04,18,04,15,13.70
2016,04,18,04,16,13.70
2016,04,18,04,17,13.70
2016,04,18,04,18,13.80
2016,04,18,04,19,13.80
2016,04,18,04,20,13.90
2016,04,18,04,21,13.90
2016,04,18,04,22,13.90
2016,04,18,04,23,13.90
2016,04,18,04,24,13.90
2016,04,18,04,25,13.80
2016,04,18,04,26,13.80
2016,04,18,04,27,13.80
2016,04,18,04,28,13.80
2016,04,18,04,29,13.70
2016,04,18,04,30,13.70
2016,04,18,04,31,13.70
2016,04,18,04,32,13.70
2016,04,18,04,33,13.60
2016,04,18,04,34,13.60
2016,04,18,04,35,13.60
2016,04,18,04,36,13.50
2016,04,18,04,37,13.50
2016,04,18,04,38,13.50
2016,04,18,04,39,13.50
2016,04,18,04,40,13.50
2016,04,18,04,41,13.50
2016,04,18,04,42,13.50
2016,04,18,04,43,13.50
2016,04,18,04,44,13.60
2016,04,18,04,45,13.60
2016,04,18,04,46,13.70
2016,04,18,04,47,13.70
2016,04,18,04,48,13.70
2016,04,18,04,49,13.80
2016,04,18,04,50,13.80
2016,04,18,04,51,13.90
2016,04,18,04,52,13.90
2016,04,18,04,53,13.90
2016,04,18,04,54,13.90
2016,04,18,04,55,13.90
2016,04,18,04,56,13.90
2016,04,18,04,57,13.90
2016,04,18,04,58,13.90
2016,04,18,04,59,13.90
2016,04,18,05,00,13.90
2016,04,18,05,01,14.00
2016,04,18,05,02,14.00
2016,04,18,05,03,14.00
2016,04,18,05,04,14.00
2016,04,18,05,05,14.00
2016,04,18,05,06,14.00
2016,04,18,05,07,14.00
2016,04,18,05,08,14.00
2016,04,18,05,09,14.00
2016,04,18,05,10,14.00
2016,04,18,05,11,13.90
2016,04,18,05,12,13.90
2016,04,18,05,13,13.90
2016,04,18,05,14,13.90
2016,04,18,05,15,13.90
2016,04,18,05,16,13.80
2016,04,18,05,17,13.80
2016,04,18,05,18,13.80
2016,04,18,05,19,13.80
2016,04,18,05,20,13.80
2016,04,18,05,21,13.80
2016,04,18,05,22,13.80
2016,04,18,05,23,13.90
2016,04,18,05,24,13.90
2016,04,18,05,25,13.90
2016,04,18,05,26,13.90
2016,04,18,05,27,13.90
2016,04,18,05,28,14.00
2016,04,18,05,29,14.10
2016,04,18,05,30,14.20
2016,04,18,05,31,14.20
2016,04,18,05,32,14.20
2016,04,18,05,33,14.30
2016,04,18,05,34,14.30
2016,04,18,05,35,14.40
2016,04,18,05,36,14.40
2016,04,18,05,37,14.40
2016,04,18,05,38,14.40
2016,04,18,05,39,14.40
2016,04,18,05,40,14.50
2016,04,18,05,41,14.50
2016,04,18,05,42,14.50
2016,04,18,05,43,14.50
2016,04,18,05,44,14.50
2016,04,18,05,45,14.50
2016,04,18,05,46,14.60
2016,04,18,05,47,14.60
2016,04,18,05,48,14.60
2016,04,18,05,49,14.70
2016,04,18,05,50,14.70
2016,04,18,05,51,14.80
2016,04,18,05,52,14.80
2016,04,18,05,53,14.90
2016,04,18,05,54,14.90
2016,04,18,05,55,14.90
2016,04,18,05,56,14.90
2016,04,18,05,57,15.00
2016,04,18,05,58,15.00
2016,04,18,05,59,15.00
2016,04,18,06,00,14.90
2016,04,18,06,01,14.90
2016,04,18,06,02,14.80
2016,04,18,06,03,14.80
2016,04,18,06,04,14.70
2016,04,18,06,05,14.60
2016,04,18,06,06,14.50
2016,04,18,06,07,14.40
2016,04,18,06,08,14.30
2016,04,18,06,09,14.30
2016,04,18,06,10,14.20
2016,04,18,06,11,14.20
2016,04,18,06,12,14.10
2016,04,18,06,13,14.10
2016,04,18,06,14,14.00
2016,04,18,06,15,14.00
2016,04,18,06,16,14.00
2016,04,18,06,17,13.90
2016,04,18,06,18,13.90
2016,04,18,06,19,13.90
2016,04,18,06,20,13.90
2016,04,18,06,21,13.80
2016,04,18,06,22,13.80
2016,04,18,06,23,13.80
2016,04,18,06,24,13.80
2016,04,18,06,25,13.80
2016,04,18,06,26,13.80
2016,04,18,06,27,13.80
2016,04,18,06,28,13.80
2016,04,18,06,29,13.70
2016,04,18,06,30,13.70
2016,04,18,06,31,13.70
2016,04,18,06,32,13.70
2016,04,18,06,33,13.70
2016,04,18,06,34,13.70
2016,04,18,06,35,13.70
2016,04,18,06,36,13.70
2016,04,18,06,37,13.70
2016,04,18,06,38,13.70
2016,04,18,06,39,13.70
2016,04,18,06,40,13.80
2016,04,18,06,41,13.80
2016,04,18,06,42,13.90
2016,04,18,06,43,13.90
2016,04,18,06,44,13.90
2016,04,18,06,45,13.90
2016,04,18,06,46,13.90
2016,04,18,06,47,14.00
2016,04,18,06,48,14.00
2016,04,18,06,49,14.00
2016,04,18,06,50,14.10
2016,04,18,06,51,14.10
2016,04,18,06,52,14.10
2016,04,18,06,53,14.10
2016,04,18,06,54,14.20
2016,04,18,06,55,14.20
2016,04,18,06,56,14.20
2016,04,18,06,57,14.20
2016,04,18,06,58,14.20
2016,04,18,06,59,14.20
2016,04,18,07,00,14.20
2016,04,18,07,01,14.20
2016,04,18,07,02,14.20
2016,04,18,07,03,14.20
2016,04,18,07,04,14.20
2016,04,18,07,05,14.30
2016,04,18,07,06,14.30
2016,04,18,07,07,14.30
2016,04,18,07,08,14.30
2016,04,18,07,09,14.40
2016,04,18,07,10,14.40
2016,04,18,07,11,14.40
2016,04,18,07,12,14.50
2016,04,18,07,13,14.50
2016,04,18,07,14,14.50
2016,04,18,07,15,14.60
2016,04,18,07,16,14.60
2016,04,18,07,17,14.60
2016,04,18,07,18,14.70
2016,04,18,07,19,14.70
2016,04,18,07,20,14.80
2016,04,18,07,21,14.80
2016,04,18,07,22,14.80
2016,04,18,07,23,14.80
2016,04,18,07,24,14.90
2016,04,18,07,25,14.90
2016,04,18,07,26,14.90
2016,04,18,07,27,14.90
2016,04,18,07,28,14.90
2016,04,18,07,29,15.00
2016,04,18,07,30,15.00
2016,04,18,07,31,15.00
2016,04,18,07,32,15.00
2016,04,18,07,33,15.10
2016,04,18,07,34,15.10
2016,04,18,07,35,15.10
2016,04,18,07,36,15.10
2016,04,18,07,37,15.20
2016,04,18,07,38,15.20
2016,04,18,07,39,15.30
2016,04,18,07,40,15.30
2016,04,18,07,41,15.30
2016,04,18,07,42,15.40
2016,04,18,07,43,15.40
2016,04,18,07,44,15.50
2016,04,18,07,45,15.50
2016,04,18,07,46,15.60
2016,04,18,07,47,15.70
2016,04,18,07,48,15.80
2016,04,18,07,49,15.80
2016,04,18,07,50,15.80
2016,04,18,07,51,15.80
2016,04,18,07,52,15.80
2016,04,18,07,53,15.80
2016,04,18,07,54,15.80
2016,04,18,07,55,15.80
2016,04,18,07,56,15.80
2016,04,18,07,57,15.80
2016,04,18,07,58,15.60
2016,04,18,07,59,15.60
2016,04,18,08,00,15.50
2016,04,18,08,01,15.50
2016,04,18,08,02,15.40
2016,04,18,08,03,15.40
2016,04,18,08,04,15.40
2016,04,18,08,05,15.30
2016,04,18,08,06,15.30
2016,04,18,08,07,15.30
2016,04,18,08,08,15.20
2016,04,18,08,09,15.20
2016,04,18,08,10,15.10
2016,04,18,08,11,15.10
2016,04,18,08,12,15.10
2016,04,18,08,13,15.10
2016,04,18,08,14,15.10
2016,04,18,08,15,15.10
2016,04,18,08,16,15.20
2016,04,18,08,17,15.10
2016,04,18,08,18,15.10
2016,04,18,08,19,15.10
2016,04,18,08,20,15.10
2016,04,18,08,21,15.10
2016,04,18,08,22,15.20
2016,04,18,08,23,15.20
2016,04,18,08,24,15.20
2016,04,18,08,25,15.20
2016,04,18,08,26,15.20
2016,04,18,08,27,15.30
2016,04,18,08,28,15.30
2016,04,18,08,29,15.30
2016,04,18,08,30,15.40
2016,04,18,08,31,15.40
2016,04,18,08,32,15.50
2016,04,18,08,33,15.50
2016,04,18,08,34,15.60
2016,04,18,08,35,15.70
2016,04,18,08,36,15.70
2016,04,18,08,37,15.70
2016,04,18,08,38,15.80
2016,04,18,08,39,15.80
2016,04,18,08,40,15.80
2016,04,18,08,41,15.80
2016,04,18,08,42,15.90
2016,04,18,08,43,15.90
2016,04,18,08,44,15.90
2016,04,18,08,45,15.90
2016,04,18,08,46,15.90
2016,04,18,08,47,15.90
2016,04,18,08,48,15.90
2016,04,18,08,49,15.90
2016,04,18,08,50,15.90
2016,04,18,08,51,15.80
2016,04,18,08,52,15.80
2016,04,18,08,53,15.80
2016,04,18,08,54,15.80
2016,04,18,08,55,15.80
2016,04,18,08,56,15.80
2016,04,18,08,57,15.80
2016,04,18,08,58,15.80
2016,04,18,08,59,15.80
2016,04,18,09,00,15.80
2016,04,18,09,01,15.80
2016,04,18,09,02,15.80
2016,04,18,09,03,15.80
2016,04,18,09,04,15.90
2016,04,18,09,05,15.90
2016,04,18,09,06,15.90
2016,04,18,09,07,16.00
2016,04,18,09,08,16.10
2016,04,18,09,09,16.10
2016,04,18,09,10,16.10
2016,04,18,09,11,16.10
2016,04,18,09,12,16.10
2016,04,18,09,13,16.10
2016,04,18,09,14,16.10
2016,04,18,09,15,16.10
2016,04,18,09,16,16.10
2016,04,18,09,17,16.10
2016,04,18,09,18,16.20
2016,04,18,09,19,16.30
2016,04,18,09,20,16.30
2016,04,18,09,21,16.30
2016,04,18,09,22,16.30
2016,04,18,09,23,16.40
2016,04,18,09,24,16.40
2016,04,18,09,25,16.40
2016,04,18,09,26,16.40
2016,04,18,09,27,16.40
2016,04,18,09,28,16.40
2016,04,18,09,29,16.40
2016,04,18,09,30,16.50
2016,04,18,09,31,16.60
2016,04,18,09,32,16.60
2016,04,18,09,33,16.70
2016,04,18,09,34,16.70
2016,04,18,09,35,16.70
2016,04,18,09,36,16.70
2016,04,18,09,37,16.70
2016,04,18,09,38,16.80
2016,04,18,09,39,16.90
2016,04,18,09,40,16.90
2016,04,18,09,41,17.00
2016,04,18,09,42,17.00
2016,04,18,09,43,17.10
2016,04,18,09,44,17.20
2016,04,18,09,45,17.20
2016,04,18,09,46,17.20
2016,04,18,09,47,17.20
2016,04,18,09,48,17.20
2016,04,18,09,49,17.20
2016,04,18,09,50,17.20
2016,04,18,09,51,17.30
2016,04,18,09,52,17.30
2016,04,18,09,53,17.30
2016,04,18,09,54,17.30
2016,04,18,09,55,17.30
2016,04,18,09,56,17.40
2016,04,18,09,57,17.40
2016,04,18,09,58,17.40
2016,04,18,09,59,17.50
2016,04,18,10,00,17.50
2016,04,18,10,01,17.60
2016,04,18,10,02,17.70
2016,04,18,10,03,17.80
2016,04,18,10,04,17.80
2016,04,18,10,05,17.90
2016,04,18,10,06,17.90
2016,04,18,10,07,17.90
2016,04,18,10,08,17.90
2016,04,18,10,09,17.90
2016,04,18,10,10,18.00
2016,04,18,10,11,18.10
2016,04,18,10,12,18.20
2016,04,18,10,13,18.20
2016,04,18,10,14,18.20
2016,04,18,10,15,18.30
2016,04,18,10,16,18.30
2016,04,18,10,17,18.30
2016,04,18,10,18,18.30
2016,04,18,10,19,18.40
2016,04,18,10,20,18.50
2016,04,18,10,21,18.50
2016,04,18,10,22,18.60
2016,04,18,10,23,18.60
2016,04,18,10,24,18.70
2016,04,18,10,25,18.80
2016,04,18,10,26,18.80
2016,04,18,10,27,18.90
2016,04,18,10,28,19.00
2016,04,18,10,29,19.10
2016,04,18,10,30,19.30
2016,04,18,10,31,19.30
2016,04,18,10,32,19.40
2016,04,18,10,33,19.40
2016,04,18,10,34,19.50
2016,04,18,10,35,19.60
2016,04,18,10,36,19.60
2016,04,18,10,37,19.50
2016,04,18,10,38,19.50
2016,04,18,10,39,19.40
2016,04,18,10,40,19.40
2016,04,18,10,41,19.40
2016,04,18,10,42,19.40
2016,04,18,10,43,19.40
2016,04,18,10,44,19.50
2016,04,18,10,45,19.50
2016,04,18,10,46,19.60
2016,04,18,10,47,19.60
2016,04,18,10,48,19.60
2016,04,18,10,49,19.60
2016,04,18,10,50,19.60
2016,04,18,10,51,19.60
2016,04,18,10,52,19.60
2016,04,18,10,53,19.60
2016,04,18,10,54,19.60
2016,04,18,10,55,19.60
2016,04,18,10,56,19.60
2016,04,18,10,57,19.60
2016,04,18,10,58,19.70
2016,04,18,10,59,19.70
2016,04,18,11,00,19.80
2016,04,18,11,01,19.80
2016,04,18,11,02,19.70
2016,04,18,11,03,19.70
2016,04,18,11,04,19.60
2016,04,18,11,05,19.60
2016,04,18,11,06,19.60
2016,04,18,11,07,19.60
2016,04,18,11,08,19.50
2016,04,18,11,09,19.60
2016,04,18,11,10,19.60
2016,04,18,11,11,19.70
2016,04,18,11,12,19.80
2016,04,18,11,13,19.80
2016,04,18,11,14,19.90
2016,04,18,11,15,19.90
2016,04,18,11,16,20.10
2016,04,18,11,17,20.10
2016,04,18,11,18,20.20
2016,04,18,11,19,20.20
2016,04,18,11,20,20.20
2016,04,18,11,21,20.20
2016,04,18,11,22,20.30
2016,04,18,11,23,20.30
2016,04,18,11,24,20.40
2016,04,18,11,25,20.50
2016,04,18,11,26,20.50
2016,04,18,11,27,20.50
2016,04,18,11,28,20.50
2016,04,18,11,29,20.50
2016,04,18,11,30,20.50
2016,04,18,11,31,20.60
2016,04,18,11,32,20.60
2016,04,18,11,33,20.60
2016,04,18,11,34,20.70
2016,04,18,11,35,20.80
2016,04,18,11,36,20.70
2016,04,18,11,37,20.70
2016,04,18,11,38,20.60
2016,04,18,11,39,20.60
2016,04,18,11,40,20.50
2016,04,18,11,41,20.50
2016,04,18,11,42,20.50
2016,04,18,11,43,20.50
2016,04,18,11,44,20.60
2016,04,18,11,45,20.70
2016,04,18,11,46,20.70
2016,04,18,11,47,20.70
2016,04,18,11,48,20.80
2016,04,18,11,49,20.80
2016,04,18,11,50,20.90
2016,04,18,11,51,20.90
2016,04,18,11,52,20.90
2016,04,18,11,53,21.00
2016,04,18,11,54,21.10
2016,04,18,11,55,21.20
2016,04,18,11,56,21.30
2016,04,18,11,57,21.30
2016,04,18,11,58,21.30
2016,04,18,11,59,21.30
2016,04,18,12,00,21.30
2016,04,18,12,01,21.30
2016,04,18,12,02,21.30
2016,04,18,12,03,21.30
2016,04,18,12,04,21.30
2016,04,18,12,05,21.30
2016,04,18,12,06,21.30
2016,04,18,12,07,21.40
2016,04,18,12,08,21.50
2016,04,18,12,09,21.60
2016,04,18,12,10,21.60
2016,04,18,12,11,21.70
2016,04,18,12,12,21.80
2016,04,18,12,13,21.80
2016,04,18,12,14,21.90
2016,04,18,12,15,22.00
2016,04,18,12,16,22.00
2016,04,18,12,17,22.00
2016,04,18,12,18,22.00
2016,04,18,12,19,22.00
2016,04,18,12,20,22.00
2016,04,18,12,21,22.00
2016,04,18,12,22,22.00
2016,04,18,12,23,22.10
2016,04,18,12,24,22.20
2016,04,18,12,25,22.20
2016,04,18,12,26,22.30
2016,04,18,12,27,22.30
2016,04,18,12,28,22.30
2016,04,18,12,29,22.30
2016,04,18,12,30,22.40
2016,04,18,12,31,22.40
2016,04,18,12,32,22.50
2016,04,18,12,33,22.60
2016,04,18,12,34,22.60
2016,04,18,12,35,22.60
2016,04,18,12,36,22.60
2016,04,18,12,37,22.60
2016,04,18,12,38,22.50
2016,04,18,12,39,22.50
2016,04,18,12,40,22.50
2016,04,18,12,41,22.60
2016,04,18,12,42,22.70
2016,04,18,12,43,22.70
2016,04,18,12,44,22.70
2016,04,18,12,45,22.70
2016,04,18,12,46,22.80
2016,04,18,12,47,22.80
2016,04,18,12,48,22.90
2016,04,18,12,49,22.90
2016,04,18,12,50,22.90
2016,04,18,12,51,22.90
2016,04,18,12,52,23.00
2016,04,18,12,53,23.10
2016,04,18,12,54,23.10
2016,04,18,12,55,23.10
2016,04,18,12,56,23.30
2016,04,18,12,57,23.30
2016,04,18,12,58,23.50
2016,04,18,12,59,23.60
2016,04,18,13,00,23.70
2016,04,18,13,01,23.70
2016,04,18,13,02,23.70
2016,04,18,13,03,23.70
2016,04,18,13,04,23.60
2016,04,18,13,05,23.60
2016,04,18,13,06,23.60
2016,04,18,13,07,23.60
2016,04,18,13,08,23.70
2016,04,18,13,09,23.80
2016,04,18,13,10,23.90
2016,04,18,13,11,24.00
2016,04,18,13,12,24.10
2016,04,18,13,13,24.20
2016,04,18,13,14,24.20
2016,04,18,13,15,24.10
2016,04,18,13,16,24.10
2016,04,18,13,17,24.00
2016,04,18,13,18,23.90
2016,04,18,13,19,23.90
2016,04,18,13,20,23.90
2016,04,18,13,21,24.00
2016,04,18,13,22,24.10
2016,04,18,13,23,24.10
2016,04,18,13,24,24.20
2016,04,18,13,25,24.20
2016,04,18,13,26,24.20
2016,04,18,13,27,24.30
2016,04,18,13,28,24.30
2016,04,18,13,29,24.30
2016,04,18,13,30,24.20
2016,04,18,13,31,24.00
2016,04,18,13,32,23.80
2016,04,18,13,33,23.70
2016,04,18,13,34,23.60
2016,04,18,13,35,23.50
2016,04,18,13,36,23.40
2016,04,18,13,37,23.30
2016,04,18,13,38,23.20
2016,04,18,13,39,23.00
2016,04,18,13,40,22.90
2016,04,18,13,41,22.80
2016,04,18,13,42,22.40
2016,04,18,13,43,22.00
2016,04,18,13,44,21.80
2016,04,18,13,45,21.60
2016,04,18,13,46,21.60
2016,04,18,13,47,21.40
2016,04,18,13,48,21.30
2016,04,18,13,49,21.20
2016,04,18,13,50,21.10
2016,04,18,13,51,21.00
2016,04,18,13,52,20.80
2016,04,18,13,53,20.80
2016,04,18,13,54,20.70
2016,04,18,13,55,20.60
2016,04,18,13,56,20.60
2016,04,18,13,57,20.50
2016,04,18,13,58,20.40
2016,04,18,13,59,20.40
2016,04,18,14,00,20.50
2016,04,18,14,01,20.50
2016,04,18,14,02,20.50
2016,04,18,14,03,20.60
2016,04,18,14,04,20.60
2016,04,18,14,05,20.60
2016,04,18,14,06,20.60
2016,04,18,14,07,20.70
2016,04,18,14,08,20.70
2016,04,18,14,09,20.70
2016,04,18,14,10,20.70
2016,04,18,14,11,20.60
2016,04,18,14,12,20.60
2016,04,18,14,13,20.60
2016,04,18,14,14,20.60
2016,04,18,14,15,20.60
2016,04,18,14,16,20.60
2016,04,18,14,17,20.60
2016,04,18,14,18,20.60
2016,04,18,14,19,20.60
2016,04,18,14,20,20.70
2016,04,18,14,21,20.70
2016,04,18,14,22,20.70
2016,04,18,14,23,20.70
2016,04,18,14,24,20.60
2016,04,18,14,25,20.60
2016,04,18,14,26,20.50
2016,04,18,14,27,20.40
2016,04,18,14,28,20.30
2016,04,18,14,29,20.30
2016,04,18,14,30,20.30
2016,04,18,14,31,20.30
2016,04,18,14,32,20.30
2016,04,18,14,33,20.40
2016,04,18,14,34,20.50
2016,04,18,14,35,20.50
2016,04,18,14,36,20.60
2016,04,18,14,37,20.60
2016,04,18,14,38,20.60
2016,04,18,14,39,20.60
2016,04,18,14,40,20.60
2016,04,18,14,41,20.60
2016,04,18,14,42,20.60
2016,04,18,14,43,20.60
2016,04,18,14,44,20.60
2016,04,18,14,45,20.60
2016,04,18,14,46,20.70
2016,04,18,14,47,20.70
2016,04,18,14,48,20.80
2016,04,18,14,49,20.80
2016,04,18,14,50,20.90
2016,04,18,14,51,20.90
2016,04,18,14,52,20.90
2016,04,18,14,53,21.00
2016,04,18,14,54,21.10
2016,04,18,14,55,21.20
2016,04,18,14,56,21.30
2016,04,18,14,57,21.40
2016,04,18,14,58,21.50
2016,04,18,14,59,21.60
2016,04,18,15,00,21.70
2016,04,18,15,01,21.70
2016,04,18,15,02,21.70
2016,04,18,15,03,21.60
2016,04,18,15,04,21.60
2016,04,18,15,05,21.60
2016,04,18,15,06,21.60
2016,04,18,15,07,21.60
2016,04,18,15,08,21.50
2016,04,18,15,09,21.40
2016,04,18,15,10,21.40
2016,04,18,15,11,21.40
2016,04,18,15,12,21.40
2016,04,18,15,13,21.40
2016,04,18,15,14,21.50
2016,04,18,15,15,21.60
2016,04,18,15,16,21.60
2016,04,18,15,17,21.60
2016,04,18,15,18,21.70
2016,04,18,15,19,21.60
2016,04,18,15,20,21.60
2016,04,18,15,21,21.70
2016,04,18,15,22,21.60
2016,04,18,15,23,21.50
2016,04,18,15,24,21.40
2016,04,18,15,25,21.30
2016,04,18,15,26,21.30
2016,04,18,15,27,21.30
2016,04,18,15,28,21.30
2016,04,18,15,29,21.30
2016,04,18,15,30,21.40
2016,04,18,15,31,21.40
2016,04,18,15,32,21.50
2016,04,18,15,33,21.60
2016,04,18,15,34,21.60
2016,04,18,15,35,21.70
2016,04,18,15,36,21.70
2016,04,18,15,37,21.70
2016,04,18,15,38,21.60
2016,04,18,15,39,21.40
2016,04,18,15,40,21.30
2016,04,18,15,41,21.30
2016,04,18,15,42,21.20
2016,04,18,15,43,21.20
2016,04,18,15,44,21.20
2016,04,18,15,45,21.20
2016,04,18,15,46,21.10
2016,04,18,15,47,21.10
2016,04,18,15,48,21.20
2016,04,18,15,49,21.20
2016,04,18,15,50,21.30
2016,04,18,15,51,21.30
2016,04,18,15,52,21.40
2016,04,18,15,53,21.40
2016,04,18,15,54,21.40
2016,04,18,15,55,21.40
2016,04,18,15,56,21.30
2016,04,18,15,57,21.30
2016,04,18,15,58,21.30
2016,04,18,15,59,21.30
2016,04,18,16,00,21.30
2016,04,18,16,01,21.30
2016,04,18,16,02,21.40
2016,04,18,16,03,21.40
2016,04,18,16,04,21.40
2016,04,18,16,05,21.40
2016,04,18,16,06,21.50
2016,04,18,16,07,21.60
2016,04,18,16,08,21.50
2016,04,18,16,09,21.40
2016,04,18,16,10,21.40
2016,04,18,16,11,21.30
2016,04,18,16,12,21.10
2016,04,18,16,13,21.00
2016,04,18,16,14,20.90
2016,04,18,16,15,20.90
2016,04,18,16,16,20.90
2016,04,18,16,17,20.90
2016,04,18,16,18,20.80
2016,04,18,16,19,20.90
2016,04,18,16,20,20.80
2016,04,18,16,21,20.80
2016,04,18,16,22,20.90
2016,04,18,16,23,20.90
2016,04,18,16,24,20.90
2016,04,18,16,25,21.00
2016,04,18,16,26,21.10
2016,04,18,16,27,21.20
2016,04,18,16,28,21.30
2016,04,18,16,29,21.50
2016,04,18,16,30,21.60
2016,04,18,16,31,21.80
2016,04,18,16,32,21.90
2016,04,18,16,33,22.00
2016,04,18,16,34,22.00
2016,04,18,16,35,22.20
2016,04,18,16,36,22.40
2016,04,18,16,37,22.60
2016,04,18,16,38,22.80
2016,04,18,16,39,23.00
2016,04,18,16,40,23.20
2016,04,18,16,41,23.30
2016,04,18,16,42,23.30
2016,04,18,16,43,23.30
2016,04,18,16,44,23.40
2016,04,18,16,45,23.50
2016,04,18,16,46,23.60
2016,04,18,16,47,23.70
2016,04,18,16,48,23.70
2016,04,18,16,49,23.60
2016,04,18,16,50,23.60
2016,04,18,16,51,23.60
2016,04,18,16,52,23.60
2016,04,18,16,53,23.60
2016,04,18,16,54,23.70
2016,04,18,16,55,23.70
2016,04,18,16,56,23.70
2016,04,18,16,57,23.70
2016,04,18,16,58,23.70
2016,04,18,16,59,23.80
2016,04,18,17,00,23.90
2016,04,18,17,01,23.90
2016,04,18,17,02,24.00
2016,04,18,17,03,24.10
2016,04,18,17,04,24.10
2016,04,18,17,05,24.10
2016,04,18,17,06,24.00
2016,04,18,17,07,23.90
2016,04,18,17,08,23.90
2016,04,18,17,09,24.10
2016,04,18,17,10,24.10
2016,04,18,17,11,24.10
2016,04,18,17,12,24.10
2016,04,18,17,13,24.20
2016,04,18,17,14,24.30
2016,04,18,17,15,24.30
2016,04,18,17,16,24.30
2016,04,18,17,17,24.40
2016,04,18,17,18,24.50
2016,04,18,17,19,24.60